User: anonymous   Login
Location: Carrer del Canonge
(41.4901°N, 2.2931°E)
Time: 21:13:52
(UTC+00:00)
Language:

Cosmos 2112 Rocket - Orbit

View from above orbital plane
View from above orbital plane
View from above satellite
View from above satellite

Ground track
Ground track

The orbit data is extracted from the following two-line orbital elements,

1 21015U 90111B   20331.83533426  .00000019  00000-0  15437-4 0  9998
2 21015  74.0510 348.4399 0022972 300.4902 232.7505 14.36018824666782
Epoch (UTC): 26 November 2020 20:02:52
Eccentricity: 0.0022972
inclination: 74.0510°
perigee height: 755 km
apogee height: 788 km
right ascension of ascending node: 348.4399°
argument of perigee: 300.4902°
revolutions per day: 14.36018824
mean anomaly at epoch: 232.7505°
orbit number at epoch: 66678

The dashed part of the orbit path shows where the satellite is in the earth's shadow,  

DLR